GW3789 Weather Reports


Display with metric or nautical units.
time (UTC)temp
F
wind
direction
speed
MPH
gust
MPH
rain 1hr
in
rain 24hr
in
rain mn
in
humidity
%
barometer
mb
20260504231521 48 167 0.0 1.0 0.00 0.99 0.00 94 1011.9
20260504231009 48 134 0.0 1.0 0.00 1.00 0.00 94 1011.9
20260504230508 48 142 0.0 2.0 0.00 1.00 0.00 94 1011.8
20260504230006 49 126 0.0 2.0 0.00 1.00 0.00 94 1011.8
20260504225502 49 117 1.0 2.0 0.00 1.01 0.00 94 1011.9
20260504225009 49 126 1.0 2.0 0.00 1.03 0.00 94 1011.9
20260504224507 49 123 0.0 1.0 0.00 1.03 0.00 94 1012.0
20260504224002 49 123 0.0 1.0 0.00 1.03 0.00 94 1012.1
20260504223506 49 123 0.0 1.0 0.00 1.03 0.00 94 1012.1
20260504223011 49 123 0.0 0.0 0.00 1.04 0.00 94 1012.1
20260504222504 49 122 0.0 0.0 0.00 1.06 0.00 94 1012.1
20260504222006 49 122 0.0 0.0 0.00 1.07 0.00 94 1012.1
20260504221516 49 123 0.0 0.0 0.00 1.07 0.00 94 1012.1
20260504221007 49 123 0.0 0.0 0.00 1.07 0.00 94 1012.2
20260504220511 49 122 0.0 0.0 0.01 1.08 0.00 94 1012.2
20260504220036 49 122 0.0 0.0 0.01 1.09 0.00 94 1012.3
20260504215508 49 122 0.0 1.0 0.02 1.09 1.09 94 1012.2
20260504215012 49 123 0.0 1.0 0.03 1.10 1.09 94 1012.3
20260504214527 49 129 0.0 1.0 0.03 1.10 1.09 94 1012.4
20260504214005 49 129 0.0 1.0 0.05 1.11 1.09 94 1012.4
20260504213502 49 129 0.0 1.0 0.06 1.11 1.09 94 1012.5
20260504213007 49 130 0.0 2.0 0.07 1.11 1.09 94 1012.7
20260504212506 49 131 0.0 2.0 0.08 1.11 1.09 94 1012.8
20260504212003 49 30 0.0 0.0 0.09 1.11 1.08 94 1013.0
20260504211523 49 30 0.0 0.0 0.10 1.11 1.08 94 1013.0
20260504211003 49 30 0.0 0.0 0.12 1.11 1.08 94 1013.0
20260504210507 49 30 0.0 0.0 0.14 1.10 1.07 94 1013.0
20260504210017 49 30 0.0 0.0 0.14 1.10 1.07 94 1013.0
20260504205509 49 30 0.0 0.0 0.15 1.09 1.07 94 1012.9
20260504205006 49 30 0.0 0.0 0.15 1.07 1.05 93 1012.9
20260504204523 49 30 0.0 0.0 0.17 1.07 1.05 93 1012.9
20260504204008 49 30 0.0 0.0 0.17 1.06 1.03 93 1012.9
20260504203510 49 30 0.0 0.0 0.17 1.05 1.03 94 1012.8
20260504203028 49 30 0.0 0.0 0.15 1.03 1.01 93 1012.8
20260504202509 49 30 0.0 0.0 0.15 1.03 1.00 93 1012.8
20260504202002 49 30 0.0 1.0 0.14 1.01 0.99 93 1012.6
20260504201509 49 30 0.0 1.0 0.14 1.00 0.98 93 1012.5
20260504201004 49 30 0.0 1.0 0.12 0.98 0.96 93 1012.5
20260504200508 49 51 0.0 1.0 0.11 0.96 0.93 93 1012.4
20260504200013 49 51 0.0 1.0 0.13 0.95 0.92 93 1012.4
20260504195507 49 47 0.0 1.0 0.14 0.93 0.91 93 1012.4
20260504195007 49 48 0.0 1.0 0.17 0.92 0.89 93 1012.2
20260504194519 49 47 0.0 1.0 0.20 0.90 0.88 93 1012.1
20260504194007 49 47 0.0 1.0 0.23 0.88 0.86 93 1012.0
20260504193508 49 46 0.0 1.0 0.27 0.88 0.85 93 1012.0
20260504193026 49 46 0.0 1.0 0.30 0.88 0.85 93 1011.9
20260504192509 49 48 0.0 1.0 0.32 0.87 0.85 93 1012.0
20260504192009 49 48 0.0 1.0 0.34 0.86 0.84 93 1012.0
20260504191526 50 333 0.0 1.0 0.37 0.86 0.84 93 1012.1
20260504191010 50 332 0.0 1.0 0.37 0.85 0.83 93 1012.1
20260504190509 50 200 0.0 0.0 0.37 0.84 0.81 93 1012.0
20260504190012 50 200 0.0 0.0 0.37 0.81 0.79 93 1012.1
20260504185512 50 200 0.0 1.0 0.35 0.78 0.76 92 1012.1
20260504185010 50 203 0.0 1.0 0.32 0.74 0.72 92 1012.2
20260504184519 50 138 0.0 2.0 0.29 0.70 0.67 92 1012.2
20260504184009 50 136 0.0 2.0 0.25 0.65 0.62 92 1012.1
20260504183507 50 283 1.0 3.0 0.20 0.60 0.58 92 1012.0
20260504183019 50 269 1.0 3.0 0.18 0.57 0.55 92 1012.0
20260504182506 50 274 1.0 5.0 0.16 0.55 0.52 92 1012.0
20260504182009 50 125 1.0 5.0 0.14 0.51 0.49 91 1012.0
20260504181530 50 271 2.0 5.0 0.12 0.49 0.47 91 1011.8
20260504181011 50 240 2.0 5.0 0.11 0.48 0.45 90 1011.8
20260504180506 50 242 1.0 5.0 0.10 0.46 0.44 90 1011.8
20260504180024 50 268 2.0 6.0 0.08 0.44 0.42 90 1011.7
20260504175509 51 257 3.0 6.0 0.07 0.43 0.40 90 1011.7
20260504175010 51 235 3.0 7.0 0.06 0.42 0.40 89 1011.6
20260504174526 52 285 3.0 7.0 0.04 0.40 0.38 89 1011.6
20260504174008 54 210 3.0 7.0 0.03 0.40 0.37 89 1011.5
20260504173507 54 272 3.0 6.0 0.03 0.40 0.37 90 1011.6
20260504173015 54 269 0.0 4.0 0.03 0.39 0.37 90 1011.6
20260504172507 54 247 2.0 5.0 0.02 0.38 0.36 90 1011.6
20260504172008 55 358 0.0 6.0 0.01 0.37 0.35 89 1011.7
20260504171519 55 273 3.0 6.0 0.00 0.37 0.34 88 1011.7
20260504171010 55 274 2.0 5.0 0.00 0.36 0.33 87 1011.6
20260504170509 55 285 2.0 4.0 0.00 0.36 0.33 86 1011.6
20260504151009 56 269 1.0 3.0 0.00 0.36 0.33 76 1011.6
20260504150508 56 281 1.0 3.0 0.00 0.36 0.33 74 1011.5
20260504141006 59 288 2.0 5.0 0.00 0.36 0.33 78 1011.8
20260504140507 59 293 1.0 3.0 0.00 0.36 0.33 75 1011.9
20260504130506 61 150 2.0 5.0 0.00 0.36 0.33 72 1012.3
20260504110510 60 127 4.0 7.0 0.00 0.36 0.33 71 1013.0
20260504100507 58 125 1.0 5.0 0.00 0.36 0.33 80 1013.4
20260504081535 56 303 1.0 5.0 0.00 0.36 0.33 82 1013.1
20260504081005 56 355 1.0 6.0 0.00 0.36 0.33 81 1013.1
20260504080507 56 155 1.0 7.0 0.00 0.36 0.33 80 1013.1
20260504050505 50 115 1.0 4.0 0.00 0.37 0.33 87 1012.2
20260504050009 50 134 1.0 5.0 0.00 0.37 0.33 87 1012.1
20260504045505 50 293 0.0 7.0 0.00 0.37 0.33 87 1012.2
20260504045002 50 246 1.0 7.0 0.00 0.37 0.33 86 1012.1
20260504044515 50 173 2.0 7.0 0.00 0.37 0.33 86 1012.1
20260504044003 50 13 2.0 5.0 0.00 0.37 0.33 86 1012.0
20260504043507 50 73 2.0 5.0 0.00 0.37 0.33 86 1012.2
20260504043018 50 255 2.0 8.0 0.00 0.37 0.33 86 1012.1
20260504042509 50 148 2.0 8.0 0.00 0.37 0.33 86 1012.1
20260504042009 50 171 1.0 6.0 0.00 0.37 0.33 86 1012.2
20260504041524 50 109 2.0 6.0 0.00 0.37 0.33 86 1012.2
20260504041006 50 269 1.0 4.0 0.00 0.37 0.33 86 1012.2
20260504040506 50 151 1.0 8.0 0.00 0.37 0.33 85 1012.3
20260504040027 50 84 2.0 8.0 0.00 0.37 0.33 85 1012.4
20260504035503 50 104 2.0 7.0 0.00 0.37 0.33 85 1012.4
20260504035005 50 126 1.0 7.0 0.00 0.37 0.33 85 1012.4
20260504034519 50 167 1.0 4.0 0.00 0.37 0.33 85 1012.4
20260504034003 50 115 1.0 5.0 0.00 0.37 0.33 85 1012.5
20260504033506 50 295 1.0 5.0 0.00 0.37 0.33 85 1012.4
20260504033028 50 152 2.0 6.0 0.00 0.37 0.33 85 1012.4
20260504032505 50 151 1.0 7.0 0.00 0.37 0.33 85 1012.5
20260504032009 50 158 1.0 7.0 0.00 0.37 0.33 85 1012.5
20260504031523 50 129 1.0 6.0 0.00 0.37 0.33 85 1012.5
20260504031007 50 155 1.0 6.0 0.00 0.37 0.33 85 1012.5
20260504030507 50 245 1.0 6.0 0.00 0.37 0.33 86 1012.5
20260504030025 50 124 2.0 6.0 0.00 0.37 0.33 86 1012.5
20260504025507 50 86 2.0 6.0 0.00 0.37 0.33 86 1012.5
20260504025007 50 120 2.0 7.0 0.00 0.37 0.33 86 1012.5
20260504024540 50 118 2.0 7.0 0.00 0.37 0.33 86 1012.5
20260504024009 50 127 2.0 6.0 0.00 0.37 0.33 86 1012.5
20260504023504 49 144 1.0 6.0 0.00 0.37 0.33 86 1012.5
20260504023010 49 179 1.0 6.0 0.00 0.37 0.33 86 1012.4
20260504022504 49 119 1.0 8.0 0.00 0.37 0.33 86 1012.5
20260504022012 49 150 2.0 8.0 0.00 0.37 0.33 86 1012.6
20260504021518 49 150 1.0 5.0 0.00 0.37 0.33 86 1012.7
20260504021008 49 193 1.0 5.0 0.00 0.37 0.33 87 1012.5
20260504020506 49 101 1.0 4.0 0.00 0.37 0.33 87 1012.7
20260504020022 48 120 1.0 3.0 0.00 0.37 0.33 88 1012.7
20260504015510 48 91 1.0 3.0 0.00 0.37 0.33 88 1012.8
20260504015009 48 300 0.0 2.0 0.01 0.37 0.33 88 1012.8
20260504014526 48 127 0.0 4.0 0.01 0.37 0.33 88 1012.8
20260504014014 48 191 1.0 6.0 0.02 0.37 0.33 88 1012.9
20260504013510 48 153 1.0 6.0 0.03 0.37 0.33 89 1012.9
20260504013025 47 347 0.0 2.0 0.03 0.37 0.33 89 1012.9
20260504012506 47 91 0.0 2.0 0.05 0.37 0.33 89 1012.9
20260504012006 47 261 0.0 4.0 0.06 0.37 0.33 89 1013.0
20260504011526 47 147 0.0 4.0 0.07 0.37 0.33 89 1013.1
20260504011006 47 27 0.0 3.0 0.07 0.37 0.33 90 1013.1
20260504010510 47 212 1.0 3.0 0.09 0.37 0.33 90 1013.1
20260504010018 47 161 0.0 2.0 0.10 0.37 0.33 91 1013.1
20260504005507 47 134 0.0 2.0 0.12 0.37 0.33 92 1013.2
20260504005007 47 118 0.0 2.0 0.13 0.36 0.32 92 1013.3
20260504004537 47 126 0.0 3.0 0.14 0.36 0.32 92 1013.4
20260504004009 47 142 1.0 3.0 0.15 0.35 0.31 92 1013.5
20260504003510 47 134 0.0 2.0 0.17 0.34 0.30 92 1013.5
20260504003025 47 293 0.0 2.0 0.17 0.33 0.29 92 1013.6
20260504002509 47 309 0.0 1.0 0.16 0.32 0.28 92 1013.6
20260504002009 47 109 0.0 1.0 0.15 0.31 0.27 92 1013.7
20260504001525 47 108 0.0 0.0 0.15 0.30 0.26 92 1013.7
20260504001005 47 108 0.0 2.0 0.14 0.29 0.25 92 1013.8
20260504000502 47 109 0.0 2.0 0.13 0.27 0.23 92 1013.9
20260504000003 47 285 0.0 1.0 0.13 0.26 0.22 92 1013.9
20260503235504 47 354 0.0 3.0 0.11 0.24 0.20 91 1014.0
20260503235003 47 308 1.0 3.0 0.11 0.22 0.18 91 1014.0
20260503234503 47 344 0.0 2.0 0.11 0.21 0.17 90 1014.0
20260503234003 47 321 0.0 1.0 0.09 0.19 0.15 90 1014.0
20260503233502 47 74 0.0 1.0 0.07 0.17 0.13 90 1014.0
20260503233004 48 74 0.0 1.0 0.07 0.16 0.12 89 1014.1
20260503232502 48 74 0.0 1.0 0.08 0.15 0.11 89 1014.1
20260503232002 48 127 0.0 1.0 0.09 0.15 0.11 88 1014.2